This is the latest recevied weather packets stored in our database for station/object SM4JDW-10. If no packets are shown the sender has not sent any weather packets the latest 10 day(s).
| Time | Temp. | Humidity | Pressure | Rain* | Wind** | Luminosity | Snow |
|---|---|---|---|---|---|---|---|
| 1787953745 | 16.67° C | 60% | 1010.3 hPa | - | - | - | - |
| 1787951945 | 16.67° C | 60% | 1010.6 hPa | - | - | - | - |
| 1787950145 | 17.22° C | 59% | 1010.9 hPa | - | - | - | - |
| 1787948345 | 17.22° C | 59% | 1011.4 hPa | - | - | - | - |
| 1787946545 | 17.22° C | 58% | 1011.3 hPa | - | - | - | - |
| 1787944745 | 17.78° C | 58% | 1011.6 hPa | - | - | - | - |
| 1787942952 | 17.78° C | 56% | 1011.9 hPa | - | - | - | - |
| 1787941144 | 18.33° C | 55% | 1012.1 hPa | - | - | - | - |
| 1787939344 | 18.33° C | 54% | 1012.2 hPa | - | - | - | - |
| 1787937544 | 18.89° C | 53% | 1012.7 hPa | - | - | - | - |
| 1787935744 | 19.44° C | 55% | 1013.1 hPa | - | - | - | - |
| 1787933944 | 19.44° C | 55% | 1013.4 hPa | - | - | - | - |
| 1787932144 | 20° C | 56% | 1013.5 hPa | - | - | - | - |
| 1787930344 | 20° C | 54% | 1014 hPa | - | - | - | - |
| 1787928544 | 20.56° C | 51% | 1014.3 hPa | - | - | - | - |
| 1787926744 | 20.56° C | 53% | 1014.4 hPa | - | - | - | - |
| 1787924944 | 21.11° C | 52% | 1015 hPa | - | - | - | - |
| 1787923144 | 20° C | 54% | 1015.5 hPa | - | - | - | - |
| 1787921343 | 20° C | 55% | 1015.6 hPa | - | - | - | - |
| 1787919543 | 19.44° C | 57% | 1016.4 hPa | - | - | - | - |
| 1787917743 | 18.33° C | 60% | 1016.9 hPa | - | - | - | - |
| 1787915943 | 17.78° C | 59% | 1017.3 hPa | - | - | - | - |
| 1787914143 | 17.78° C | 60% | 1017.7 hPa | - | - | - | - |
| 1787912343 | 17.78° C | 61% | 1018.2 hPa | - | - | - | - |
| 1787910542 | 17.22° C | 62% | 1018.4 hPa | - | - | - | - |
* Rain since midnight (hover to see other rain measurements)
** Current wind speed in m/s (hover to see current wind gust speed)